�N����,����,�g�[���i�䏊�j���x,�g�[�����x,��g�[���i��Q���j���x,����
 2003/04/01, 0:00,19.7,68,17.8,11.4
 2003/04/01, 0:15,19.8,67,17.8,11.4
 2003/04/01, 0:30,19.6,68,17.7,11.5
 2003/04/01, 0:45,19.6,69,17.5,11.5
 2003/04/01, 1:00,19.7,70,17.6,11.6
 2003/04/01, 1:15,19.6,70,17.5,11.7
 2003/04/01, 1:30,19.5,70,17.6,11
 2003/04/01, 1:45,19.4,69,17.7,11
 2003/04/01, 2:00,19.2,70,17.8,11.1
 2003/04/01, 2:15,19.2,70,17.6,11.1
 2003/04/01, 2:30,19,70,17.7,11.2
 2003/04/01, 2:45,18.8,70,17.6,11.3
 2003/04/01, 3:00,18.8,71,17.6,11.3
 2003/04/01, 3:15,18.7,71,17.6,11.4
 2003/04/01, 3:30,18.7,71,17.6,11.5
 2003/04/01, 3:45,18.7,70,17.6,11.5
 2003/04/01, 4:00,18.6,71,17.6,11.6
 2003/04/01, 4:15,18.4,71,17.6,11.7
 2003/04/01, 4:30,18.4,71,17.4,11.8
 2003/04/01, 4:45,18.3,72,17.5,11.8
 2003/04/01, 5:00,18.4,72,17.5,11.9
 2003/04/01, 5:15,18.2,72,17.5,12
 2003/04/01, 5:30,18.3,71,17.5,12
 2003/04/01, 5:45,18.1,71,17.5,12.1
 2003/04/01, 6:00,18,72,17.4,12.2
 2003/04/01, 6:15,17.9,72,17.5,12.2
 2003/04/01, 6:30,18,71,17.4,12.3
 2003/04/01, 6:45,18.1,70,17.3,11.2
 2003/04/01, 7:00,17.9,66,17.4,11.2
 2003/04/01, 7:15,19.4,64,17.4,11.6
 2003/04/01, 7:30,18.8,67,17.4,11.7
 2003/04/01, 7:45,18.5,69,17.3,11.5
 2003/04/01, 8:00,18.3,70,17.1,11.3
 2003/04/01, 8:15,18.1,70,17.1,11.4
 2003/04/01, 8:30,17.9,69,17.1,11.4
 2003/04/01, 8:45,17.8,69,16.9,11.5
 2003/04/01, 9:00,17.9,69,16.9,11.5
 2003/04/01, 9:15,17.8,69,17,11.6
 2003/04/01, 9:30,17.8,69,16.9,11.6
 2003/04/01, 9:45,17.7,69,16.9,11.7
 2003/04/01,10:00,17.6,69,16.8,11.8
 2003/04/01,10:15,17.7,69,16.7,11.8
 2003/04/01,10:30,17.6,68,16.8,11.9
 2003/04/01,10:45,17.5,68,16.8,11.9
 2003/04/01,11:00,17.7,68,16.8,12
 2003/04/01,11:15,17.7,67,17,12.1
 2003/04/01,11:30,17.8,67,17,12.1
 2003/04/01,11:45,17.8,67,17.1,12.2
 2003/04/01,12:00,17.7,66,17.2,12.2
 2003/04/01,12:15,17.8,66,17.4,12.3
 2003/04/01,12:30,17.8,65,17.5,12.4
 2003/04/01,12:45,17.9,65,17.6,12.4
 2003/04/01,13:00,18,65,17.6,12.5
 2003/04/01,13:15,18,64,17.8,12.6
 2003/04/01,13:30,18,65,17.9,12.6
 2003/04/01,13:45,18,64,18,12.7
 2003/04/01,14:00,17.9,64,17.9,12.7
 2003/04/01,14:15,18,64,18,12.8
 2003/04/01,14:30,17.9,62,18,12.9
 2003/04/01,14:45,18,64,18,12.9
 2003/04/01,15:00,17.9,64,17.9,13
 2003/04/01,15:15,17.8,64,17.9,13
 2003/04/01,15:30,17.8,63,18,13.1
 2003/04/01,15:45,17.8,64,17.8,13.1
 2003/04/01,16:00,17.9,64,17.8,13.2
 2003/04/01,16:15,18,64,18,13.3
 2003/04/01,16:30,17.9,64,18,13.3
 2003/04/01,16:45,17.9,64,17.8,13.4
 2003/04/01,17:00,17.8,64,17.8,13.4
 2003/04/01,17:15,17.8,64,17.9,13.5
 2003/04/01,17:30,17.8,64,17.8,13.5
 2003/04/01,17:45,17.7,65,17.7,13.6
 2003/04/01,18:00,17.8,64,17.7,13.6
 2003/04/01,18:15,17.7,65,17.8,13.6
 2003/04/01,18:30,17.7,64,17.6,13.7
 2003/04/01,18:45,17.7,65,17.6,13.7
 2003/04/01,19:00,17.6,64,17.6,13.8
 2003/04/01,19:15,17.6,64,17.6,13.8
 2003/04/01,19:30,17.6,64,17.5,13.9
 2003/04/01,19:45,17.6,64,17.4,13.9
 2003/04/01,20:00,17.5,64,17.5,14
 2003/04/01,20:15,17.5,64,17.4,14
 2003/04/01,20:30,17.5,64,17.4,14
 2003/04/01,20:45,17.5,63,17.3,14.1
 2003/04/01,21:00,17.3,64,17.2,14.1
 2003/04/01,21:15,17.3,63,17.2,14.1
 2003/04/01,21:30,17.3,63,17.1,14.2
 2003/04/01,21:45,17.3,63,17.1,14.2
 2003/04/01,22:00,17.2,63,17,14.2
 2003/04/01,22:15,17.3,63,17,14.3
 2003/04/01,22:30,17.4,64,17,12.6
 2003/04/01,22:45,17.4,65,17,11.8
 2003/04/01,23:00,17.6,68,16.9,11.5
 2003/04/01,23:15,17.5,68,16.9,11.5
 2003/04/01,23:30,17.5,68,16.9,11.6
 2003/04/01,23:45,17.7,70,16.8,11.6
 2003/04/02, 0:00,17.7,70,16.8,11.7
 2003/04/02, 0:15,17.8,70,16.7,11.8
 2003/04/02, 0:30,17.9,71,16.7,11.8
 2003/04/02, 0:45,17.9,72,16.7,11.9
 2003/04/02, 1:00,17.8,73,16.8,11.9
 2003/04/02, 1:15,18,74,16.7,12
 2003/04/02, 1:30,18.1,73,16.9,11.3
 2003/04/02, 1:45,18,73,16.9,11.4
 2003/04/02, 2:00,17.9,73,16.9,11.4
 2003/04/02, 2:15,17.9,74,16.9,11.5
 2003/04/02, 2:30,18,73,16.8,11.6
 2003/04/02, 2:45,17.9,73,16.9,11.6
 2003/04/02, 3:00,17.9,73,16.9,11.7
 2003/04/02, 3:15,17.9,73,17,11.7
 2003/04/02, 3:30,17.9,73,16.9,11.8
 2003/04/02, 3:45,17.8,73,17,11.9
 2003/04/02, 4:00,17.8,74,17,11.9
 2003/04/02, 4:15,17.7,73,17,12
 2003/04/02, 4:30,17.8,73,17,12.1
 2003/04/02, 4:45,17.7,73,16.9,12.1
 2003/04/02, 5:00,17.6,73,17,12.2
 2003/04/02, 5:15,17.6,73,17,12.2
 2003/04/02, 5:30,17.5,73,16.8,12.3
 2003/04/02, 5:45,17.5,73,16.9,12.3
 2003/04/02, 6:00,17.5,73,16.9,12.4
 2003/04/02, 6:15,17.4,73,16.9,12.5
 2003/04/02, 6:30,17.3,73,16.8,12.5
 2003/04/02, 6:45,17.2,73,16.7,12.6
 2003/04/02, 7:00,17.3,73,16.8,12.6
 2003/04/02, 7:15,17.2,73,16.7,12.7
 2003/04/02, 7:30,17.2,73,16.6,12.7
 2003/04/02, 7:45,17.3,73,16.6,11.4
 2003/04/02, 8:00,17.5,69,16.7,11.5
 2003/04/02, 8:15,18.6,65,16.7,11.5
 2003/04/02, 8:30,18,69,16.6,11.6
 2003/04/02, 8:45,17.8,71,16.5,11.1
 2003/04/02, 9:00,17.9,71,16.6,11.2
 2003/04/02, 9:15,17.8,71,16.6,11.3
 2003/04/02, 9:30,18,71,16.5,11.3
 2003/04/02, 9:45,18,71,16.6,11.4
 2003/04/02,10:00,27,65,16.5,11.4
 2003/04/02,10:15,19.7,65,16.5,11.5
 2003/04/02,10:30,19.6,63,16.6,11.5
 2003/04/02,10:45,18.8,67,16.6,11.6
 2003/04/02,11:00,19.8,85,16.8,11.7
 2003/04/02,11:15,19.2,67,17,11.7
 2003/04/02,11:30,19.4,67,17.2,11.8
 2003/04/02,11:45,19.3,67,17.2,11.3
 2003/04/02,12:00,19.3,65,17.4,11.3
 2003/04/02,12:15,19.5,64,17.5,11.4
 2003/04/02,12:30,19.6,64,17.9,11.4
 2003/04/02,12:45,19.7,65,18,11.2
 2003/04/02,13:00,19.6,65,18.1,11.1
 2003/04/02,13:15,19.9,64,18.2,11.3
 2003/04/02,13:30,19.8,64,18.1,11.4
 2003/04/02,13:45,19.8,65,18.1,11.4
 2003/04/02,14:00,19.8,64,18.2,11.5
 2003/04/02,14:15,20.4,63,18.3,11.6
 2003/04/02,14:30,20.2,63,18.3,11.6
 2003/04/02,14:45,20.2,65,18.4,11.7
 2003/04/02,15:00,20.2,64,18.4,11.6
 2003/04/02,15:15,19.8,65,18.5,11.6
 2003/04/02,15:30,19.7,66,18.5,11.5
 2003/04/02,15:45,19.6,65,18.4,11.6
 2003/04/02,16:00,19.7,65,18.5,11.6
 2003/04/02,16:15,19.8,65,18.5,11.7
 2003/04/02,16:30,19.5,65,18.4,11.8
 2003/04/02,16:45,19.5,65,18.3,11.8
 2003/04/02,17:00,19.4,65,18.2,11.9
 2003/04/02,17:15,29.5,70,18.3,11.4
 2003/04/02,17:30,19.6,68,18.3,11.6
 2003/04/02,17:45,19.9,63,18.3,11.7
 2003/04/02,18:00,20.4,67,18.3,11.7
 2003/04/02,18:15,20.2,63,18.1,11.6
 2003/04/02,18:30,20.2,63,18.2,11.6
 2003/04/02,18:45,20.2,63,18.2,11.7
 2003/04/02,19:00,20.2,62,18.1,11.8
 2003/04/02,19:15,20.1,66,18,11.8
 2003/04/02,19:30,20,66,17.9,11.9
 2003/04/02,19:45,19.9,66,17.8,12
 2003/04/02,20:00,20.1,67,17.8,12
 2003/04/02,20:15,20.3,66,17.9,12.1
 2003/04/02,20:30,20.4,65,17.8,12.2
 2003/04/02,20:45,20.2,66,17.9,12.2
 2003/04/02,21:00,20.1,66,17.8,12.3
 2003/04/02,21:15,20,65,17.8,12.3
 2003/04/02,21:30,20,64,17.8,11.9
 2003/04/02,21:45,20,64,17.8,11.9
 2003/04/02,22:00,20,64,17.7,11.9
 2003/04/02,22:15,19.9,64,17.8,12
 2003/04/02,22:30,19.8,63,17.8,12.1
 2003/04/02,22:45,19.8,64,17.7,12
 2003/04/02,23:00,19.8,65,17.7,12
 2003/04/02,23:15,19.8,66,17.7,12.1
 2003/04/02,23:30,19.7,64,17.6,12.1
 2003/04/02,23:45,19.5,65,17.6,11.9
 2003/04/03, 0:00,19.4,67,17.5,11.9
 2003/04/03, 0:15,19.3,68,17.5,12
 2003/04/03, 0:30,19.2,68,17.4,11.7
 2003/04/03, 0:45,19,69,17.4,11.7
 2003/04/03, 1:00,19,69,17.3,11.8
 2003/04/03, 1:15,18.8,69,17.4,11.8
 2003/04/03, 1:30,18.7,70,17.3,11.9
 2003/04/03, 1:45,18.6,70,17.2,12
 2003/04/03, 2:00,18.4,70,17.2,12
 2003/04/03, 2:15,18.5,70,17.2,12.1
 2003/04/03, 2:30,18.3,70,17.1,12.1
 2003/04/03, 2:45,18.3,69,17.1,12.2
 2003/04/03, 3:00,18.2,70,17,12.3
 2003/04/03, 3:15,18.1,70,17,12.3
 2003/04/03, 3:30,18,70,17,12.4
 2003/04/03, 3:45,17.9,70,16.9,12.4
 2003/04/03, 4:00,17.8,71,16.9,12.5
 2003/04/03, 4:15,17.8,70,16.7,12.5
 2003/04/03, 4:30,17.7,70,16.7,12.6
 2003/04/03, 4:45,17.5,70,16.7,12.6
 2003/04/03, 5:00,17.6,70,16.7,12.7
 2003/04/03, 5:15,17.3,70,16.6,12.7
 2003/04/03, 5:30,17.3,70,16.6,12.8
 2003/04/03, 5:45,17.3,70,16.6,12.8
 2003/04/03, 6:00,17.2,70,16.5,12.9
 2003/04/03, 6:15,17.3,69,16.4,12.9
 2003/04/03, 6:30,17,70,16.4,13
 2003/04/03, 6:45,17,70,16.4,13
 2003/04/03, 7:00,17.1,69,16.4,13.1
 2003/04/03, 7:15,17,68,16.4,13.1
 2003/04/03, 7:30,17.2,66,16.4,11.8
 2003/04/03, 7:45,18.2,68,16.3,11.8
 2003/04/03, 8:00,18.1,65,16.3,11.8
 2003/04/03, 8:15,18,63,16.3,11.4
 2003/04/03, 8:30,18.1,61,16.2,11.4
 2003/04/03, 8:45,18,59,16.4,11.6
 2003/04/03, 9:00,18.2,57,16.4,11.6
 2003/04/03, 9:15,18.4,56,16.4,11.7
 2003/04/03, 9:30,18.6,55,16.5,11.7
 2003/04/03, 9:45,18.6,55,16.6,11.8
 2003/04/03,10:00,18.5,54,16.7,11.8
 2003/04/03,10:15,18.4,54,16.7,11.9
 2003/04/03,10:30,18.6,53,16.8,11.9
 2003/04/03,10:45,18.5,52,17,12
 2003/04/03,11:00,18.7,53,17,12
 2003/04/03,11:15,18.7,51,17.2,12.1
 2003/04/03,11:30,18.9,50,17.4,12.2
 2003/04/03,11:45,18.9,51,17.5,12.2
 2003/04/03,12:00,19.3,49,17.6,11.9
 2003/04/03,12:15,19.5,49,17.8,11.9
 2003/04/03,12:30,19.6,49,18,12
 2003/04/03,12:45,19.6,47,18.3,12
 2003/04/03,13:00,19.7,45,18.6,11.8
 2003/04/03,13:15,20,52,18.8,11.9
 2003/04/03,13:30,19.8,47,19,12
 2003/04/03,13:45,20,41,19.1,12
 2003/04/03,14:00,20.1,38,19.3,12.1
 2003/04/03,14:15,20.2,41,19.5,12.1
 2003/04/03,14:30,20.2,39,19.6,12.2
 2003/04/03,14:45,20.2,38,19.7,12.3
 2003/04/03,15:00,20.3,38,19.8,12.3
 2003/04/03,15:15,20.4,37,20.1,12.4
 2003/04/03,15:30,20.5,38,20.2,11.9
 2003/04/03,15:45,20.9,50,20.5,12
 2003/04/03,16:00,21.6,39,20.7,12.1
 2003/04/03,16:15,21.7,38,20.9,12.1
 2003/04/03,16:30,21.6,38,21.1,12.2
 2003/04/03,16:45,22.2,41,21.5,12.3
 2003/04/03,17:00,22.3,44,22,12.1
 2003/04/03,17:15,22.4,46,22.1,12
 2003/04/03,17:30,22.1,53,22.2,12.1
 2003/04/03,17:45,22.4,51,22.1,12.1
 2003/04/03,18:00,22.2,54,21.8,12.2
 2003/04/03,18:15,21.7,56,21.5,12.3
 2003/04/03,18:30,21.4,57,21.4,12.3
 2003/04/03,18:45,21.2,57,21.2,12.4
 2003/04/03,19:00,21.1,58,21,12.5
 2003/04/03,19:15,21,59,20.9,12.6
 2003/04/03,19:30,20.9,60,20.7,12.6
 2003/04/03,19:45,20.9,63,20.6,12.7
 2003/04/03,20:00,21,66,20.4,12.7
 2003/04/03,20:15,20.8,66,20.3,12.2
 2003/04/03,20:30,20.7,65,20.3,12.2
 2003/04/03,20:45,20.7,63,20,12.3
 2003/04/03,21:00,20.7,62,20,12.3
 2003/04/03,21:15,20.9,63,19.8,12
 2003/04/03,21:30,20.7,63,19.8,12.1
 2003/04/03,21:45,20.5,63,19.7,12.1
 2003/04/03,22:00,20.7,61,19.6,12.2
 2003/04/03,22:15,20.7,60,19.7,12.2
 2003/04/03,22:30,20.6,61,19.5,12.2
 2003/04/03,22:45,20.6,61,19.5,12.3
 2003/04/03,23:00,20.6,62,19.4,12.3
 2003/04/03,23:15,20.4,62,19.3,12.4
 2003/04/03,23:30,20.3,64,19,12.5
 2003/04/03,23:45,20.2,64,19,12.1
 2003/04/04, 0:00,20.1,64,19,12.1
 2003/04/04, 0:15,20,64,18.8,12.2
 2003/04/04, 0:30,19.9,65,18.8,12
 2003/04/04, 0:45,19.6,65,18.7,12.1
 2003/04/04, 1:00,19.6,65,18.6,12.1
 2003/04/04, 1:15,19.4,65,18.6,12.2
 2003/04/04, 1:30,19.4,65,18.5,12.3
 2003/04/04, 1:45,19.3,65,18.4,12.3
 2003/04/04, 2:00,19.2,65,18.3,12.4
 2003/04/04, 2:15,19,65,18.3,12.4
 2003/04/04, 2:30,19,65,18.2,12.5
 2003/04/04, 2:45,18.9,65,18.2,12.6
 2003/04/04, 3:00,18.8,65,18,12.6
 2003/04/04, 3:15,18.7,66,17.9,12.7
 2003/04/04, 3:30,18.7,65,18,12.7
 2003/04/04, 3:45,18.6,66,17.9,12.8
 2003/04/04, 4:00,18.6,65,17.8,12.9
 2003/04/04, 4:15,18.5,66,17.7,12.9
 2003/04/04, 4:30,18.4,65,17.6,13
 2003/04/04, 4:45,18.3,65,17.6,13
 2003/04/04, 5:00,18.2,65,17.6,13.1
 2003/04/04, 5:15,18.2,66,17.5,13.1
 2003/04/04, 5:30,18.2,66,17.5,13.2
 2003/04/04, 5:45,18.2,66,17.3,13.2
 2003/04/04, 6:00,18.1,66,17.3,13.3
 2003/04/04, 6:15,18,66,17.4,13.3
 2003/04/04, 6:30,18.1,65,17.2,13.4
 2003/04/04, 6:45,18,66,17.1,13.4
 2003/04/04, 7:00,17.9,65,17.2,13.5
 2003/04/04, 7:15,18,65,17.3,13.5
 2003/04/04, 7:30,18.3,66,17.2,12
 2003/04/04, 7:45,18.2,66,17.1,11.6
 2003/04/04, 8:00,19.4,62,17.1,12
 2003/04/04, 8:15,18.7,65,17,12
 2003/04/04, 8:30,18.6,65,17,11.7
 2003/04/04, 8:45,18.8,66,17,11.7
 2003/04/04, 9:00,18.8,66,16.9,11.7
 2003/04/04, 9:15,18.5,66,16.9,11.8
 2003/04/04, 9:30,18.6,66,16.9,11.5
 2003/04/04, 9:45,18.3,66,16.9,11.6
 2003/04/04,10:00,18,66,16.9,11.7
 2003/04/04,10:15,18.1,66,16.9,11.7
 2003/04/04,10:30,18,66,16.9,11.8
 2003/04/04,10:45,18.1,66,16.8,11.8
 2003/04/04,11:00,18,66,16.8,11.9
 2003/04/04,11:15,18.1,66,16.7,11.9
 2003/04/04,11:30,18,66,17,11.5
 2003/04/04,11:45,18,65,17,12
 2003/04/04,12:00,18,65,17,12
 2003/04/04,12:15,18.2,65,16.8,12
 2003/04/04,12:30,18.3,65,16.9,12.1
 2003/04/04,12:45,18.2,65,16.8,12.1
 2003/04/04,13:00,18,65,16.9,12.2
 2003/04/04,13:15,18.6,65,16.8,11.6
 2003/04/04,13:30,18.5,65,17,11.7
 2003/04/04,13:45,18.5,64,17,11.7
 2003/04/04,14:00,18.4,64,17,11.8
 2003/04/04,14:15,18.5,64,17,11.8
 2003/04/04,14:30,18.4,64,17,11.9
 2003/04/04,14:45,18.3,63,16.8,11.9
 2003/04/04,15:00,18.2,63,16.8,12
 2003/04/04,15:15,17.9,64,16.9,11.5
 2003/04/04,15:30,18,64,16.8,11.7
 2003/04/04,15:45,18,64,16.9,11.7
 2003/04/04,16:00,17.9,64,17,11.7
 2003/04/04,16:15,17.8,64,17,11.8
 2003/04/04,16:30,17.9,63,17,11.9
 2003/04/04,16:45,17.9,65,17,11.5
 2003/04/04,17:00,18.2,65,17,11.5
 2003/04/04,17:15,18.8,69,17,11.5
 2003/04/04,17:30,18.7,67,16.9,11.6
 2003/04/04,17:45,18.1,99,16.9,11.4
 2003/04/04,18:00,20.3,67,17.4,11.6
 2003/04/04,18:15,20.7,61,17.6,11.4
 2003/04/04,18:30,20.4,60,17.7,11.6
 2003/04/04,18:45,20.5,59,17.7,11.6
 2003/04/04,19:00,20.7,61,17.8,11.6
 2003/04/04,19:15,20.8,63,18.1,11.7
 2003/04/04,19:30,21,63,18.2,11.8
 2003/04/04,19:45,21,64,18.2,11.8
 2003/04/04,20:00,21,64,18.2,11.5
 2003/04/04,20:15,21.1,61,18.4,11.6
 2003/04/04,20:30,21.4,67,18.5,12.3
 2003/04/04,20:45,21.8,69,18.5,12.3
 2003/04/04,21:00,21.8,64,18.6,12.4
 2003/04/04,21:15,21.6,61,18.6,11.9
 2003/04/04,21:30,21.5,61,18.6,11.9
 2003/04/04,21:45,21.3,62,18.5,11.6
 2003/04/04,22:00,21.4,62,18.5,11.8
 2003/04/04,22:15,21.3,61,18.4,11.8
 2003/04/04,22:30,21.2,62,18.5,11.9
 2003/04/04,22:45,21.3,63,18.6,11.9
 2003/04/04,23:00,21.1,65,18.5,12
 2003/04/04,23:15,21.2,65,18.5,11.8
 2003/04/04,23:30,21.2,64,18.6,11.8
 2003/04/04,23:45,21.1,64,18.5,11.8
 2003/04/05, 0:00,21.1,64,18.6,11.6
 2003/04/05, 0:15,21.2,63,18.6,11.7
 2003/04/05, 0:30,20.6,63,18.4,11.7
 2003/04/05, 0:45,20.3,63,18.1,11.8
 2003/04/05, 1:00,20,64,17.9,11.8
 2003/04/05, 1:15,19.9,65,17.8,11.9
 2003/04/05, 1:30,19.8,66,17.6,12
 2003/04/05, 1:45,19.6,66,17.5,12
 2003/04/05, 2:00,19.6,65,17.4,12.1
 2003/04/05, 2:15,19.6,66,17.3,12.2
 2003/04/05, 2:30,19.4,66,17.2,12.2
 2003/04/05, 2:45,19.3,66,17.1,12.3
 2003/04/05, 3:00,19.3,66,17.1,12.3
 2003/04/05, 3:15,19.1,66,17.1,12.4
 2003/04/05, 3:30,19,67,17,12.5
 2003/04/05, 3:45,19,66,17,12.5
 2003/04/05, 4:00,18.8,66,16.9,12.6
 2003/04/05, 4:15,18.8,66,16.8,12.6
 2003/04/05, 4:30,18.7,66,16.6,12.7
 2003/04/05, 4:45,18.7,65,16.7,12.8
 2003/04/05, 5:00,18.5,66,16.6,12.8
 2003/04/05, 5:15,18.5,65,16.8,12.9
 2003/04/05, 5:30,18.3,65,16.7,13
 2003/04/05, 5:45,18.4,65,16.7,13
 2003/04/05, 6:00,18.3,65,16.7,13.1
 2003/04/05, 6:15,18.1,65,16.6,13.1
 2003/04/05, 6:30,18,65,16.5,13.2
 2003/04/05, 6:45,18.1,65,16.5,13.2
 2003/04/05, 7:00,17.9,64,16.5,13.3
 2003/04/05, 7:15,17.9,64,16.4,13.4
 2003/04/05, 7:30,17.8,64,16.3,13.4
 2003/04/05, 7:45,17.8,62,16.3,13.5
 2003/04/05, 8:00,17.7,63,16.3,13.5
 2003/04/05, 8:15,17.7,62,16.1,13.6
 2003/04/05, 8:30,17.8,63,16,12.6
 2003/04/05, 8:45,17.9,62,16,12.6
 2003/04/05, 9:00,18,64,16,11.5
 2003/04/05, 9:15,17.8,64,16,11.6
 2003/04/05, 9:30,18,66,15.9,11.6
 2003/04/05, 9:45,17.9,64,15.9,11.6
 2003/04/05,10:00,17.8,66,15.8,11.7
 2003/04/05,10:15,18,66,15.6,11.9
 2003/04/05,10:30,18,66,15.7,12
 2003/04/05,10:45,17.9,66,15.6,12
 2003/04/05,11:00,17.7,66,15.6,12
 2003/04/05,11:15,17.8,65,15.6,12.1
 2003/04/05,11:30,17.9,66,15.5,12.1
 2003/04/05,11:45,17.8,66,15.7,12.1
 2003/04/05,12:00,17.9,66,15.7,12.2
 2003/04/05,12:15,17.8,65,15.7,12.2
 2003/04/05,12:30,17.5,66,15.7,12.3
 2003/04/05,12:45,17.4,62,15.7,11.2
 2003/04/05,13:00,17.7,63,15.7,11.2
 2003/04/05,13:15,17.6,64,15.7,11.1
 2003/04/05,13:30,17.5,64,15.7,11.9
 2003/04/05,13:45,17.4,64,15.6,12
 2003/04/05,14:00,17.4,63,15.6,12
 2003/04/05,14:15,17.5,62,15.6,12
 2003/04/05,14:30,17.2,63,15.5,12
 2003/04/05,14:45,17.1,63,15.5,12.1
 2003/04/05,15:00,17,63,15.5,12.1
 2003/04/05,15:15,17,63,15.6,11.1
 2003/04/05,15:30,17.1,62,15.6,11.1
 2003/04/05,15:45,17,61,15.6,11.2
 2003/04/05,16:00,17,62,15.5,11.2
 2003/04/05,16:15,19,59,15.5,11.3
 2003/04/05,16:30,18.8,56,15.5,11.3
 2003/04/05,16:45,18,57,15.5,11.3
 2003/04/05,17:00,17.4,59,15.4,11.4
 2003/04/05,17:15,17.8,61,15.3,11.5
 2003/04/05,17:30,18,57,15.4,11.5
 2003/04/05,17:45,18.4,57,15.7,11.5
 2003/04/05,18:00,18.8,55,15.9,11.6
 2003/04/05,18:15,18.7,55,16,10.9
 2003/04/05,18:30,18.8,54,16.1,10.9
 2003/04/05,18:45,19.1,54,16.3,11
 2003/04/05,19:00,18.5,55,16.2,11
 2003/04/05,19:15,17.9,57,15.9,11.1
 2003/04/05,19:30,17.7,56,15.7,11.1
 2003/04/05,19:45,17.4,57,15.5,11.2
 2003/04/05,20:00,17.3,57,15.4,11.2
 2003/04/05,20:15,17.2,57,15.3,11.3
 2003/04/05,20:30,17.2,57,15.2,11.3
 2003/04/05,20:45,17,57,15.1,11.3
 2003/04/05,21:00,17.2,58,15.1,10.7
 2003/04/05,21:15,17.2,57,14.9,10.7
 2003/04/05,21:30,17.1,57,14.9,10.7
 2003/04/05,21:45,17.1,56,14.8,10.8
 2003/04/05,22:00,17.1,56,14.7,10.8
 2003/04/05,22:15,17.2,57,14.6,11.4
 2003/04/05,22:30,17.3,57,14.6,11.5
 2003/04/05,22:45,17.2,58,14.5,11.3
 2003/04/05,23:00,17.5,58,14.5,11.3
 2003/04/05,23:15,17.8,63,14.6,11.3
 2003/04/05,23:30,17.8,61,14.5,10.9
 2003/04/05,23:45,17.9,65,14.7,10.9
 2003/04/06, 0:00,18,65,14.8,11
 2003/04/06, 0:15,17.9,61,14.8,11
 2003/04/06, 0:30,18,60,14.8,11.1
 2003/04/06, 0:45,17.9,60,14.7,11.1
 2003/04/06, 1:00,17.8,60,14.6,11.1
 2003/04/06, 1:15,17.6,58,14.4,10.7
 2003/04/06, 1:30,17.2,59,14.3,10.8
 2003/04/06, 1:45,17,59,14.1,10.8
 2003/04/06, 2:00,16.8,59,14,10.8
 2003/04/06, 2:15,16.6,59,13.9,10.8
 2003/04/06, 2:30,16.5,59,13.8,10.9
 2003/04/06, 2:45,16.4,59,13.7,10.9
 2003/04/06, 3:00,16.2,59,13.6,10.9
 2003/04/06, 3:15,16.1,59,13.6,11
 2003/04/06, 3:30,15.9,59,13.5,11
 2003/04/06, 3:45,15.9,59,13.5,11
 2003/04/06, 4:00,15.7,59,13.3,11
 2003/04/06, 4:15,15.7,59,13.3,11.1
 2003/04/06, 4:30,15.5,59,13.3,11.1
 2003/04/06, 4:45,15.4,59,13.2,11.1
 2003/04/06, 5:00,15.2,59,13.2,11.1
 2003/04/06, 5:15,15.2,59,13.1,11.2
 2003/04/06, 5:30,15.2,58,13.1,11.2
 2003/04/06, 5:45,15.1,58,13.1,11.2
 2003/04/06, 6:00,15,58,13,11.2
 2003/04/06, 6:15,15,57,13,11.2
 2003/04/06, 6:30,14.8,57,13,11.3
 2003/04/06, 6:45,14.9,57,13,11.3
 2003/04/06, 7:00,14.8,57,13,11.3
 2003/04/06, 7:15,14.8,57,12.9,11.3
 2003/04/06, 7:30,14.7,57,12.9,11.4
 2003/04/06, 7:45,14.7,57,13,11.4
 2003/04/06, 8:00,14.7,57,13,10.4
 2003/04/06, 8:15,14.8,56,12.9,10.6
 2003/04/06, 8:30,15.7,54,12.9,10.6
 2003/04/06, 8:45,15.4,55,12.9,10.6
 2003/04/06, 9:00,15.3,54,12.9,10.7
 2003/04/06, 9:15,15.7,55,13,11.4
 2003/04/06, 9:30,16,54,12.9,11.5
 2003/04/06, 9:45,16,54,13,11.5
 2003/04/06,10:00,16.2,54,13,11.5
 2003/04/06,10:15,16.4,53,13.1,11.5
 2003/04/06,10:30,16.4,52,13.5,11.6
 2003/04/06,10:45,16.9,54,14,11.6
 2003/04/06,11:00,16.9,56,14.2,11.6
 2003/04/06,11:15,17,53,14.6,11.7
 2003/04/06,11:30,17.8,50,14.8,11.6
 2003/04/06,11:45,17.5,53,14.8,11.4
 2003/04/06,12:00,17.5,54,14.9,11.4
 2003/04/06,12:15,17.3,55,15.1,11.5
 2003/04/06,12:30,17.4,55,15.2,11.5
 2003/04/06,12:45,17.5,54,15.5,11.5
 2003/04/06,13:00,17.4,55,15.6,11.6
 2003/04/06,13:15,17.5,54,15.9,11.6
 2003/04/06,13:30,17.8,54,16.1,11.7
 2003/04/06,13:45,17.8,54,16.5,11.7
 2003/04/06,14:00,17.9,53,16.8,11.8
 2003/04/06,14:15,18,53,17,11.8
 2003/04/06,14:30,18.2,51,17.4,11.9
 2003/04/06,14:45,18.3,51,17.6,11.9
 2003/04/06,15:00,18.4,50,17.8,12
 2003/04/06,15:15,18.7,50,18,12
 2003/04/06,15:30,18.9,50,18.3,12.1
 2003/04/06,15:45,19,50,18.4,12.1
 2003/04/06,16:00,19.2,50,18.6,12.2
 2003/04/06,16:15,19.3,50,18.9,12.3
 2003/04/06,16:30,19.4,49,19,12.3
 2003/04/06,16:45,19.5,50,19.1,12.4
 2003/04/06,17:00,19.6,50,19.1,12.4
 2003/04/06,17:15,19.5,50,19.1,12.5
 2003/04/06,17:30,19.5,50,18.9,10.5
 2003/04/06,17:45,19.4,48,18.9,10.6
 2003/04/06,18:00,19.4,48,18.8,10.8
 2003/04/06,18:15,19.4,48,18.5,10.8
 2003/04/06,18:30,21.3,59,18.6,10.9
 2003/04/06,18:45,20.7,49,18.5,11
 2003/04/06,19:00,20.4,51,18.5,11
 2003/04/06,19:15,20.2,50,18.2,10.8
 2003/04/06,19:30,20.1,49,18.1,10.8
 2003/04/06,19:45,20,50,18.3,10.9
 2003/04/06,20:00,20,50,18.1,10.9
 2003/04/06,20:15,19.9,51,18,11
 2003/04/06,20:30,19.9,52,17.9,10.7
 2003/04/06,20:45,19.8,54,17.7,10.7
 2003/04/06,21:00,19.8,57,17.7,10.8
 2003/04/06,21:15,19.7,56,17.7,10.8
 2003/04/06,21:30,19.8,54,17.6,10.9
 2003/04/06,21:45,19.6,55,17.4,11
 2003/04/06,22:00,19.4,55,17.5,11
 2003/04/06,22:15,19.4,56,17.3,11.1
 2003/04/06,22:30,19,56,17.1,11
 2003/04/06,22:45,18.9,55,17,11
 2003/04/06,23:00,18.8,55,17,11.1
 2003/04/06,23:15,18.8,56,16.9,11.1
 2003/04/06,23:30,18.7,57,16.8,11.2
 2003/04/06,23:45,18.5,58,16.7,11.2
 2003/04/07, 0:00,18.4,58,16.6,11.3
 2003/04/07, 0:15,18.4,58,16.5,11.4
 2003/04/07, 0:30,18.4,57,16.4,11.4
 2003/04/07, 0:45,18.2,56,16.3,11.5
 2003/04/07, 1:00,18.2,55,16.1,11.5
 2003/04/07, 1:15,18.1,55,16,11.6
 2003/04/07, 1:30,18,55,15.9,11.7
 2003/04/07, 1:45,17.9,55,15.7,11.7
 2003/04/07, 2:00,17.8,54,15.6,10.9
 2003/04/07, 2:15,17.8,53,15.5,10.9
 2003/04/07, 2:30,17.6,53,15.3,11
 2003/04/07, 2:45,17.4,53,15.2,11
 2003/04/07, 3:00,17.2,53,15.1,11.1
 2003/04/07, 3:15,17.1,52,15,11.1
 2003/04/07, 3:30,17,52,14.9,11.2
 2003/04/07, 3:45,16.9,53,14.8,11.2
 2003/04/07, 4:00,16.8,53,14.7,11.3
 2003/04/07, 4:15,16.5,52,14.5,11.3
 2003/04/07, 4:30,16.4,53,14.4,11.3
 2003/04/07, 4:45,16.4,52,14.3,11.4
 2003/04/07, 5:00,16.4,52,14.1,11.4
 2003/04/07, 5:15,16.3,52,14,11.4
 2003/04/07, 5:30,16.2,52,13.9,11.5
 2003/04/07, 5:45,16.2,52,13.8,11.5
 2003/04/07, 6:00,16,52,13.7,11.6
 2003/04/07, 6:15,15.9,52,13.6,11.6
 2003/04/07, 6:30,15.9,52,13.4,11.6
 2003/04/07, 6:45,15.7,53,13.5,11.6
 2003/04/07, 7:00,15.7,53,13.5,10.5
 2003/04/07, 7:15,15.7,54,13.4,10.7
 2003/04/07, 7:30,17,50,13.3,10.9
 2003/04/07, 7:45,16.2,52,13.3,10.9
 2003/04/07, 8:00,16,53,13.3,11
 2003/04/07, 8:15,16,54,13.3,10.7
 2003/04/07, 8:30,15.7,54,13.4,10.8
 2003/04/07, 8:45,15.7,54,13.5,11
 2003/04/07, 9:00,15.7,54,13.6,11
 2003/04/07, 9:15,16.2,53,13.6,11
 2003/04/07, 9:30,16.2,56,13.9,10.7
 2003/04/07, 9:45,16.2,55,13.9,10.8
 2003/04/07,10:00,16.3,55,14.1,10.8
 2003/04/07,10:15,16.3,54,14.3,10.8
 2003/04/07,10:30,16.4,54,14.5,10.9
 2003/04/07,10:45,16.4,53,14.7,10.9
 2003/04/07,11:00,16.6,53,15.1,11
 2003/04/07,11:15,16.6,53,15.2,11
 2003/04/07,11:30,16.7,53,15.4,11.1
 2003/04/07,11:45,16.9,52,15.7,11.1
 2003/04/07,12:00,17.1,52,16,10.4
 2003/04/07,12:15,17.6,52,16.3,10.4
 2003/04/07,12:30,18.4,63,16.6,10.4
 2003/04/07,12:45,18.2,54,17,10.5
 2003/04/07,13:00,18.4,53,17.4,10.2
 2003/04/07,13:15,18.5,51,17.7,10.4
 2003/04/07,13:30,18.5,49,18,10.5
 2003/04/07,13:45,18.5,49,18.2,10.5
 2003/04/07,14:00,18.8,48,18.6,10.6
 2003/04/07,14:15,18.8,47,18.7,10.7
 2003/04/07,14:30,18.7,48,18.9,10.8
 2003/04/07,14:45,18.8,48,18.8,10.8
 2003/04/07,15:00,18.8,47,18.9,10.9
 2003/04/07,15:15,19,47,19,11
 2003/04/07,15:30,19,47,19.4,11.1
 2003/04/07,15:45,19.2,39,19.4,11.2
 2003/04/07,16:00,19.3,38,19.4,11.3
 2003/04/07,16:15,19.4,37,19.4,11.3
 2003/04/07,16:30,19.5,38,19.7,11.4
 2003/04/07,16:45,19.7,40,19.6,11.5
 2003/04/07,17:00,19.6,35,19.5,11.5
 2003/04/07,17:15,19.1,29,19.4,11.6
 2003/04/07,17:30,19.4,36,19.4,10.9
 2003/04/07,17:45,19.5,40,19.4,11
 2003/04/07,18:00,22.3,84,19.3,11
 2003/04/07,18:15,20.6,45,19,11.1
 2003/04/07,18:30,20.6,47,18.9,11.2
 2003/04/07,18:45,21.5,48,18.9,11.3
 2003/04/07,19:00,21,49,18.8,11.4
 2003/04/07,19:15,20.8,48,18.6,11.4
 2003/04/07,19:30,20.7,49,18.6,11.5
 2003/04/07,19:45,20.6,48,18.5,11.6
 2003/04/07,20:00,20.6,50,18.4,11.7
 2003/04/07,20:15,20.5,51,18.3,11.8
 2003/04/07,20:30,20.5,51,18.2,11.1
 2003/04/07,20:45,20.4,51,18.2,11.3